TimePDT,TemperatureF,Dew PointF,Humidity,Sea Level PressureIn,VisibilityMPH,Wind Direction,Wind SpeedMPH,Gust SpeedMPH,PrecipitationIn,Events,Conditions,WindDirDegrees,DateUTC
12:52 AM,39.0,33.1,79,29.85,-9999.0,NNE,4.6,-,N/A,,Unknown,20,2013-10-09 07:52:00
1:52 AM,36.0,32.0,86,29.85,-9999.0,NNW,4.6,-,N/A,,Unknown,340,2013-10-09 08:52:00
2:52 AM,36.0,33.1,89,29.85,-9999.0,NNE,3.5,-,N/A,,Unknown,20,2013-10-09 09:52:00
3:52 AM,37.0,33.1,86,29.84,-9999.0,NNE,6.9,-,N/A,,Unknown,20,2013-10-09 10:52:00
4:52 AM,36.0,32.0,86,29.85,-9999.0,North,5.8,-,N/A,,Unknown,10,2013-10-09 11:52:00
5:52 AM,37.0,33.1,86,29.85,-9999.0,North,8.1,-,N/A,,Unknown,10,2013-10-09 12:52:00
6:52 AM,35.1,32.0,89,29.87,-9999.0,ENE,3.5,-,N/A,,Unknown,60,2013-10-09 13:52:00
7:52 AM,37.0,33.1,86,29.89,-9999.0,North,9.2,-,N/A,,Unknown,350,2013-10-09 14:52:00
8:52 AM,39.9,34.0,79,29.88,-9999.0,North,13.8,-,N/A,,Unknown,360,2013-10-09 15:52:00
9:52 AM,43.0,32.0,65,29.88,-9999.0,North,15.0,-,N/A,,Unknown,10,2013-10-09 16:52:00
10:52 AM,46.9,33.1,59,29.86,-9999.0,North,11.5,18.4,N/A,,Unknown,360,2013-10-09 17:52:00
11:52 AM,50.0,32.0,50,29.84,-9999.0,North,15.0,-,N/A,,Unknown,360,2013-10-09 18:52:00
12:52 PM,54.0,32.0,43,29.81,-9999.0,North,11.5,23.0,N/A,,Unknown,360,2013-10-09 19:52:00
1:52 PM,55.9,30.9,39,29.79,-9999.0,North,15.0,21.9,N/A,,Unknown,360,2013-10-09 20:52:00
2:52 PM,59.0,28.9,32,29.77,-9999.0,NNE,16.1,27.6,N/A,,Unknown,20,2013-10-09 21:52:00
3:52 PM,57.0,28.9,34,29.77,-9999.0,NNW,17.3,-,N/A,,Unknown,340,2013-10-09 22:52:00
4:52 PM,57.0,28.0,33,29.78,-9999.0,North,17.3,24.2,N/A,,Unknown,350,2013-10-09 23:52:00
5:52 PM,54.0,27.0,35,29.80,-9999.0,North,13.8,21.9,N/A,,Unknown,360,2013-10-10 00:52:00
6:52 PM,50.0,27.0,41,29.82,-9999.0,North,8.1,-,N/A,,Unknown,10,2013-10-10 01:52:00
7:52 PM,45.0,27.0,49,29.84,-9999.0,North,4.6,-,N/A,,Unknown,10,2013-10-10 02:52:00
8:52 PM,42.1,27.0,55,29.85,-9999.0,ENE,3.5,-,N/A,,Unknown,60,2013-10-10 03:52:00
9:52 PM,39.9,27.0,60,29.85,-9999.0,Calm,Calm,-,N/A,,Unknown,0,2013-10-10 04:52:00
10:52 PM,35.1,26.1,70,29.86,-9999.0,Calm,Calm,-,N/A,,Unknown,0,2013-10-10 05:52:00
11:52 PM,35.1,26.1,70,29.83,-9999.0,Calm,Calm,-,N/A,,Unknown,0,2013-10-10 06:52:00